| time (UTC) | temp F | wind direction | speed MPH | gust MPH | rain 1hr in | rain 24hr in | rain mn in | humidity % | barometer mb |
| 20260508204901 | 65 | 194 | 0.0 | 0.0 | 0.00 | 0.00 | 0.00 | 55 | 1011.1 |
| 20260508204328 | 65 | 195 | 0.0 | 0.0 | 0.00 | 0.00 | 0.00 | 51 | 1011.1 |
| 20260508203836 | 65 | 169 | 0.0 | 0.0 | 0.00 | 0.00 | 0.00 | 52 | 1011.4 |
| 20260508203346 | 65 | 169 | 0.0 | 0.0 | 0.00 | 0.00 | 0.00 | 52 | 1011.4 |
| 20260508202836 | 66 | 169 | 0.0 | 0.0 | 0.00 | 0.00 | 0.00 | 51 | 1011.4 |
| 20260508202349 | 66 | 169 | 0.0 | 0.0 | 0.00 | 0.00 | 0.00 | 51 | 1011.5 |
| 20260508201854 | 66 | 170 | 0.0 | 0.0 | 0.00 | 0.00 | 0.00 | 50 | 1011.5 |
| 20260508201339 | 66 | 167 | 0.0 | 0.0 | 0.00 | 0.00 | 0.00 | 53 | 1011.5 |
| 20260508200828 | 65 | 167 | 0.0 | 0.0 | 0.00 | 0.00 | 0.00 | 52 | 1011.6 |
| 20260508200513 | 65 | 153 | 0.0 | 0.0 | 0.00 | 0.00 | 0.00 | 53 | 1011.6 |
| 20260508195845 | 65 | 153 | 0.0 | 0.0 | 0.00 | 0.00 | 0.00 | 50 | 1011.6 |
| 20260508195328 | 65 | 153 | 0.0 | 0.0 | 0.00 | 0.00 | 0.00 | 51 | 1012.0 |
| 20260508194835 | 64 | 153 | 0.0 | 0.0 | 0.00 | 0.00 | 0.00 | 52 | 1012.0 |
| 20260508194401 | 64 | 153 | 0.0 | 0.0 | 0.00 | 0.00 | 0.00 | 52 | 1012.0 |
| 20260508193831 | 64 | 153 | 0.0 | 0.0 | 0.00 | 0.00 | 0.00 | 53 | 1012.2 |
| 20260508193354 | 64 | 153 | 0.0 | 0.0 | 0.00 | 0.00 | 0.00 | 52 | 1012.2 |
| 20260508192851 | 64 | 153 | 0.0 | 0.0 | 0.00 | 0.00 | 0.00 | 51 | 1012.2 |
| 20260508192337 | 65 | 153 | 0.0 | 0.0 | 0.00 | 0.00 | 0.00 | 51 | 1012.6 |
| 20260508191826 | 65 | 153 | 0.0 | 0.0 | 0.00 | 0.00 | 0.00 | 48 | 1012.6 |
| 20260508191332 | 65 | 153 | 0.0 | 0.0 | 0.00 | 0.00 | 0.00 | 51 | 1012.6 |
| 20260508190842 | 65 | 153 | 0.0 | 0.0 | 0.00 | 0.00 | 0.00 | 52 | 1012.7 |
| 20260508190330 | 64 | 159 | 0.0 | 0.0 | 0.00 | 0.00 | 0.00 | 54 | 1012.7 |
| 20260508185827 | 65 | 169 | 0.0 | 0.0 | 0.00 | 0.00 | 0.00 | 51 | 1012.7 |
| 20260508185329 | 65 | 201 | 0.0 | 0.0 | 0.00 | 0.00 | 0.00 | 51 | 1013.0 |
| 20260508184854 | 65 | 201 | 0.0 | 0.0 | 0.00 | 0.00 | 0.00 | 51 | 1013.0 |
| 20260508184341 | 64 | 284 | 0.0 | 0.0 | 0.00 | 0.00 | 0.00 | 50 | 1013.0 |
| 20260508183828 | 64 | 135 | 0.0 | 0.0 | 0.00 | 0.01 | 0.00 | 51 | 1013.1 |
| 20260508183340 | 64 | 135 | 0.0 | 0.0 | 0.00 | 0.01 | 0.00 | 53 | 1013.1 |
| 20260508182844 | 64 | 135 | 0.0 | 0.0 | 0.00 | 0.01 | 0.00 | 54 | 1013.1 |
| 20260508182335 | 63 | 139 | 0.0 | 0.0 | 0.00 | 0.01 | 0.00 | 54 | 1013.3 |
| 20260508181839 | 63 | 140 | 0.0 | 0.0 | 0.00 | 0.01 | 0.00 | 52 | 1013.3 |
| 20260508181332 | 63 | 144 | 0.0 | 0.0 | 0.00 | 0.01 | 0.00 | 51 | 1013.3 |
| 20260508180900 | 64 | 144 | 0.0 | 0.0 | 0.00 | 0.01 | 0.00 | 51 | 1013.3 |
| 20260508180342 | 64 | 144 | 0.0 | 0.0 | 0.00 | 0.01 | 0.00 | 50 | 1013.3 |
| 20260508175832 | 63 | 144 | 0.0 | 0.0 | 0.00 | 0.01 | 0.00 | 52 | 1013.3 |
| 20260508175334 | 63 | 144 | 0.0 | 0.0 | 0.00 | 0.01 | 0.00 | 53 | 1013.8 |
| 20260508174830 | 62 | 144 | 0.0 | 0.0 | 0.00 | 0.01 | 0.00 | 55 | 1013.8 |
| 20260508174336 | 62 | 144 | 0.0 | 0.0 | 0.00 | 0.01 | 0.00 | 55 | 1013.8 |
| 20260508173901 | 62 | 144 | 0.0 | 0.0 | 0.00 | 0.01 | 0.00 | 57 | 1013.9 |
| 20260508173333 | 62 | 144 | 0.0 | 0.0 | 0.00 | 0.01 | 0.00 | 56 | 1013.9 |
| 20260508172830 | 62 | 172 | 0.0 | 0.0 | 0.00 | 0.01 | 0.00 | 56 | 1013.9 |
| 20260508172353 | 62 | 172 | 0.0 | 0.0 | 0.00 | 0.01 | 0.00 | 55 | 1013.9 |
| 20260508171841 | 62 | 136 | 0.0 | 0.0 | 0.00 | 0.01 | 0.00 | 56 | 1013.9 |
| 20260508171331 | 62 | 136 | 0.0 | 0.0 | 0.00 | 0.01 | 0.00 | 54 | 1013.9 |
| 20260508170840 | 62 | 136 | 0.0 | 0.0 | 0.00 | 0.01 | 0.00 | 56 | 1014.3 |
| 20260508170332 | 62 | 136 | 0.0 | 0.0 | 0.00 | 0.01 | 0.00 | 55 | 1014.3 |
| 20260508165838 | 62 | 146 | 0.0 | 0.0 | 0.00 | 0.01 | 0.00 | 54 | 1014.3 |
| 20260508165331 | 62 | 146 | 0.0 | 0.0 | 0.00 | 0.01 | 0.00 | 53 | 1014.4 |
| 20260508164837 | 62 | 146 | 0.0 | 0.0 | 0.00 | 0.01 | 0.00 | 54 | 1014.4 |
| 20260508164330 | 61 | 146 | 0.0 | 0.0 | 0.00 | 0.01 | 0.00 | 54 | 1014.4 |
| 20260508163838 | 62 | 146 | 0.0 | 0.0 | 0.00 | 0.01 | 0.00 | 52 | 1014.7 |
| 20260508163328 | 62 | 146 | 0.0 | 0.0 | 0.00 | 0.01 | 0.00 | 52 | 1014.7 |
| 20260508162835 | 62 | 140 | 0.0 | 0.0 | 0.00 | 0.01 | 0.00 | 51 | 1014.7 |
| 20260508162400 | 62 | 140 | 0.0 | 0.0 | 0.00 | 0.01 | 0.00 | 53 | 1014.8 |
| 20260508161833 | 62 | 140 | 0.0 | 0.0 | 0.00 | 0.01 | 0.00 | 53 | 1014.8 |
| 20260508161327 | 62 | 140 | 0.0 | 0.0 | 0.00 | 0.01 | 0.00 | 54 | 1014.8 |
| 20260508160830 | 62 | 332 | 0.0 | 0.0 | 0.00 | 0.01 | 0.00 | 54 | 1015.0 |
| 20260508160359 | 62 | 332 | 0.0 | 0.0 | 0.00 | 0.01 | 0.00 | 56 | 1015.0 |
| 20260508155829 | 61 | 332 | 0.0 | 0.0 | 0.00 | 0.01 | 0.00 | 52 | 1015.0 |
| 20260508155358 | 61 | 332 | 0.0 | 0.0 | 0.00 | 0.01 | 0.00 | 52 | 1015.1 |
| 20260508154833 | 61 | 332 | 0.0 | 0.0 | 0.00 | 0.01 | 0.00 | 52 | 1015.1 |
| 20260508154358 | 60 | 332 | 0.0 | 0.0 | 0.00 | 0.01 | 0.00 | 56 | 1015.1 |
| 20260508153830 | 60 | 332 | 0.0 | 0.0 | 0.00 | 0.01 | 0.00 | 52 | 1015.4 |
| 20260508153327 | 59 | 332 | 0.0 | 0.0 | 0.00 | 0.01 | 0.00 | 54 | 1015.4 |
| 20260508152834 | 59 | 332 | 0.0 | 0.0 | 0.00 | 0.01 | 0.00 | 54 | 1015.4 |
| 20260508152405 | 59 | 332 | 0.0 | 0.0 | 0.00 | 0.01 | 0.00 | 52 | 1015.5 |
| 20260508151838 | 59 | 332 | 0.0 | 0.0 | 0.00 | 0.01 | 0.00 | 53 | 1015.5 |
| 20260508151329 | 59 | 332 | 0.0 | 0.0 | 0.00 | 0.01 | 0.00 | 53 | 1015.5 |
| 20260508150855 | 58 | 332 | 0.0 | 0.0 | 0.00 | 0.01 | 0.00 | 54 | 1015.5 |
| 20260508150326 | 58 | 332 | 0.0 | 0.0 | 0.00 | 0.01 | 0.00 | 54 | 1015.5 |
| 20260508145858 | 58 | 332 | 0.0 | 0.0 | 0.00 | 0.01 | 0.00 | 56 | 1015.5 |
| 20260508145326 | 57 | 332 | 0.0 | 0.0 | 0.00 | 0.01 | 0.00 | 54 | 1015.5 |
| 20260508144852 | 57 | 332 | 0.0 | 0.0 | 0.00 | 0.01 | 0.00 | 55 | 1015.5 |
| 20260508144328 | 57 | 332 | 0.0 | 0.0 | 0.00 | 0.01 | 0.00 | 53 | 1015.5 |
| 20260508143852 | 57 | 332 | 0.0 | 0.0 | 0.00 | 0.01 | 0.00 | 56 | 1015.6 |
| 20260508143345 | 56 | 332 | 0.0 | 0.0 | 0.00 | 0.01 | 0.00 | 60 | 1015.6 |
| 20260508142846 | 56 | 332 | 0.0 | 0.0 | 0.00 | 0.01 | 0.00 | 56 | 1015.6 |
| 20260508142343 | 56 | 332 | 0.0 | 0.0 | 0.00 | 0.01 | 0.00 | 57 | 1015.9 |
| 20260508141856 | 55 | 332 | 0.0 | 0.0 | 0.00 | 0.01 | 0.00 | 56 | 1015.9 |
| 20260508141345 | 55 | 332 | 0.0 | 0.0 | 0.00 | 0.01 | 0.00 | 60 | 1015.9 |
| 20260508140854 | 55 | 332 | 0.0 | 0.0 | 0.00 | 0.01 | 0.00 | 64 | 1015.9 |
| 20260508140331 | 54 | 332 | 0.0 | 0.0 | 0.00 | 0.01 | 0.00 | 60 | 1015.9 |
| 20260508135900 | 54 | 332 | 0.0 | 0.0 | 0.00 | 0.01 | 0.00 | 67 | 1015.9 |
| 20260508135331 | 54 | 332 | 0.0 | 0.0 | 0.00 | 0.01 | 0.00 | 69 | 1016.0 |
| 20260508134837 | 53 | 331 | 0.0 | 0.0 | 0.00 | 0.01 | 0.00 | 77 | 1016.0 |
| 20260508134328 | 53 | 331 | 0.0 | 0.0 | 0.00 | 0.01 | 0.00 | 83 | 1016.0 |
| 20260508133840 | 52 | 331 | 0.0 | 0.0 | 0.00 | 0.02 | 0.00 | 83 | 1016.0 |
| 20260508133357 | 52 | 331 | 0.0 | 0.0 | 0.00 | 0.02 | 0.00 | 86 | 1016.0 |
| 20260508132844 | 52 | 331 | 0.0 | 0.0 | 0.00 | 0.02 | 0.00 | 89 | 1016.0 |
| 20260508132333 | 51 | 331 | 0.0 | 0.0 | 0.00 | 0.02 | 0.00 | 91 | 1015.7 |
| 20260508131902 | 51 | 331 | 0.0 | 0.0 | 0.00 | 0.02 | 0.00 | 92 | 1015.7 |
| 20260508131345 | 51 | 331 | 0.0 | 0.0 | 0.00 | 0.02 | 0.00 | 93 | 1015.7 |
| 20260508130914 | 51 | 331 | 0.0 | 0.0 | 0.00 | 0.02 | 0.00 | 94 | 1015.6 |
| 20260508130330 | 50 | 331 | 0.0 | 0.0 | 0.00 | 0.02 | 0.00 | 97 | 1015.6 |
| 20260508125855 | 50 | 331 | 0.0 | 0.0 | 0.00 | 0.02 | 0.00 | 98 | 1015.6 |
| 20260508125328 | 49 | 331 | 0.0 | 0.0 | 0.00 | 0.02 | 0.00 | 98 | 1015.5 |
| 20260508124854 | 49 | 331 | 0.0 | 0.0 | 0.00 | 0.02 | 0.00 | 98 | 1015.5 |
| 20260508124407 | 48 | 331 | 0.0 | 0.0 | 0.00 | 0.02 | 0.00 | 98 | 1015.5 |
| 20260508123837 | 48 | 331 | 0.0 | 0.0 | 0.00 | 0.07 | 0.00 | 98 | 1015.5 |
| 20260508123346 | 47 | 331 | 0.0 | 0.0 | 0.00 | 0.07 | 0.00 | 98 | 1015.5 |
| 20260508122853 | 47 | 331 | 0.0 | 0.0 | 0.00 | 0.07 | 0.00 | 98 | 1015.5 |
| 20260508122359 | 47 | 331 | 0.0 | 0.0 | 0.00 | 0.07 | 0.00 | 98 | 1015.5 |
| 20260508121852 | 46 | 331 | 0.0 | 0.0 | 0.00 | 0.07 | 0.00 | 98 | 1015.5 |
| 20260508121358 | 46 | 331 | 0.0 | 0.0 | 0.00 | 0.07 | 0.00 | 98 | 1015.5 |
| 20260508120842 | 46 | 331 | 0.0 | 0.0 | 0.00 | 0.07 | 0.00 | 97 | 1015.4 |
| 20260508120339 | 45 | 331 | 0.0 | 0.0 | 0.00 | 0.07 | 0.00 | 97 | 1015.4 |
| 20260508115843 | 45 | 331 | 0.0 | 0.0 | 0.00 | 0.07 | 0.00 | 97 | 1015.4 |
| 20260508115339 | 45 | 331 | 0.0 | 0.0 | 0.00 | 0.07 | 0.00 | 97 | 1015.1 |
| 20260508114850 | 45 | 331 | 0.0 | 0.0 | 0.00 | 0.07 | 0.00 | 97 | 1015.1 |
| 20260508114338 | 44 | 331 | 0.0 | 0.0 | 0.00 | 0.07 | 0.00 | 97 | 1015.1 |
| 20260508113846 | 44 | 331 | 0.0 | 0.0 | 0.00 | 0.20 | 0.00 | 97 | 1014.9 |
| 20260508113359 | 43 | 331 | 0.0 | 0.0 | 0.00 | 0.20 | 0.00 | 96 | 1014.9 |
| 20260508112826 | 43 | 331 | 0.0 | 0.0 | 0.00 | 0.20 | 0.00 | 96 | 1014.9 |
| 20260508112414 | 43 | 331 | 0.0 | 0.0 | 0.00 | 0.20 | 0.00 | 96 | 1014.5 |
| 20260508111918 | 43 | 331 | 0.0 | 0.0 | 0.00 | 0.20 | 0.00 | 96 | 1014.5 |
| 20260508111331 | 43 | 331 | 0.0 | 0.0 | 0.00 | 0.20 | 0.00 | 96 | 1014.5 |
| 20260508110855 | 43 | 331 | 0.0 | 0.0 | 0.00 | 0.20 | 0.00 | 96 | 1014.4 |
| 20260508110349 | 43 | 331 | 0.0 | 0.0 | 0.00 | 0.20 | 0.00 | 96 | 1014.4 |
| 20260508105835 | 43 | 331 | 0.0 | 0.0 | 0.00 | 0.20 | 0.00 | 96 | 1014.4 |
| 20260508105345 | 43 | 331 | 0.0 | 0.0 | 0.00 | 0.20 | 0.00 | 96 | 1014.3 |
| 20260508104833 | 43 | 331 | 0.0 | 0.0 | 0.00 | 0.20 | 0.00 | 96 | 1014.3 |
| 20260508104327 | 43 | 331 | 0.0 | 0.0 | 0.00 | 0.20 | 0.00 | 96 | 1014.3 |
| 20260508103856 | 43 | 331 | 0.0 | 0.0 | 0.00 | 0.21 | 0.00 | 96 | 1013.9 |
| 20260508103329 | 43 | 331 | 0.0 | 0.0 | 0.00 | 0.21 | 0.00 | 96 | 1013.9 |
| 20260508102836 | 43 | 331 | 0.0 | 0.0 | 0.00 | 0.21 | 0.00 | 96 | 1013.9 |
| 20260508102406 | 44 | 331 | 0.0 | 0.0 | 0.00 | 0.21 | 0.00 | 96 | 1013.8 |
| 20260508101834 | 44 | 331 | 0.0 | 0.0 | 0.00 | 0.21 | 0.00 | 96 | 1013.8 |
| 20260508101347 | 44 | 331 | 0.0 | 0.0 | 0.00 | 0.21 | 0.00 | 96 | 1013.8 |
| 20260508100912 | 44 | 331 | 0.0 | 0.0 | 0.00 | 0.21 | 0.00 | 96 | 1013.5 |
| 20260508100400 | 44 | 331 | 0.0 | 0.0 | 0.00 | 0.21 | 0.00 | 96 | 1013.5 |
| 20260508095828 | 44 | 331 | 0.0 | 0.0 | 0.00 | 0.21 | 0.00 | 96 | 1013.5 |
| 20260508095417 | 44 | 331 | 0.0 | 0.0 | 0.00 | 0.21 | 0.00 | 96 | 1013.3 |
| 20260508094830 | 44 | 331 | 0.0 | 0.0 | 0.00 | 0.21 | 0.00 | 96 | 1013.3 |
| 20260508094356 | 45 | 331 | 0.0 | 0.0 | 0.00 | 0.21 | 0.00 | 96 | 1013.3 |
| 20260508093830 | 45 | 331 | 0.0 | 0.0 | 0.00 | 0.21 | 0.00 | 96 | 1013.3 |
| 20260508093344 | 45 | 331 | 0.0 | 0.0 | 0.00 | 0.21 | 0.00 | 96 | 1013.3 |
| 20260508092834 | 45 | 331 | 0.0 | 0.0 | 0.00 | 0.21 | 0.00 | 96 | 1013.3 |
| 20260508092343 | 45 | 331 | 0.0 | 0.0 | 0.00 | 0.21 | 0.00 | 96 | 1013.3 |
| 20260508091840 | 45 | 331 | 0.0 | 0.0 | 0.00 | 0.21 | 0.00 | 96 | 1013.3 |
| 20260508091329 | 45 | 331 | 0.0 | 0.0 | 0.00 | 0.21 | 0.00 | 96 | 1013.3 |
| 20260508090837 | 45 | 331 | 0.0 | 0.0 | 0.00 | 0.21 | 0.00 | 96 | 1013.3 |
| 20260508090331 | 46 | 331 | 0.0 | 0.0 | 0.00 | 0.21 | 0.00 | 96 | 1013.3 |
| 20260508085838 | 46 | 331 | 0.0 | 0.0 | 0.00 | 0.21 | 0.00 | 96 | 1013.3 |
| 20260508085335 | 46 | 331 | 0.0 | 0.0 | 0.00 | 0.21 | 0.00 | 96 | 1013.3 |
| 20260508084838 | 46 | 331 | 0.0 | 0.0 | 0.00 | 0.21 | 0.00 | 96 | 1013.3 |
| 20260508084332 | 46 | 331 | 0.0 | 0.0 | 0.00 | 0.21 | 0.00 | 96 | 1013.3 |
| 20260508083837 | 46 | 331 | 0.0 | 0.0 | 0.00 | 0.26 | 0.00 | 96 | 1013.2 |
| 20260508083331 | 46 | 331 | 0.0 | 0.0 | 0.00 | 0.26 | 0.00 | 96 | 1013.2 |
| 20260508082839 | 46 | 331 | 0.0 | 0.0 | 0.00 | 0.26 | 0.00 | 96 | 1013.2 |
| 20260508082328 | 46 | 331 | 0.0 | 0.0 | 0.00 | 0.26 | 0.00 | 96 | 1012.9 |
| 20260508081857 | 46 | 331 | 0.0 | 0.0 | 0.00 | 0.26 | 0.00 | 96 | 1012.9 |
| 20260508081342 | 46 | 331 | 0.0 | 0.0 | 0.00 | 0.26 | 0.00 | 96 | 1012.9 |
| 20260508080832 | 46 | 331 | 0.0 | 0.0 | 0.00 | 0.26 | 0.00 | 96 | 1012.7 |
| 20260508080342 | 46 | 331 | 0.0 | 0.0 | 0.00 | 0.26 | 0.00 | 96 | 1012.7 |
| 20260508075827 | 46 | 331 | 0.0 | 0.0 | 0.00 | 0.26 | 0.00 | 96 | 1012.7 |
| 20260508075336 | 46 | 331 | 0.0 | 0.0 | 0.00 | 0.26 | 0.00 | 96 | 1012.9 |
| 20260508074900 | 46 | 331 | 0.0 | 0.0 | 0.00 | 0.26 | 0.00 | 96 | 1012.9 |
| 20260508074331 | 46 | 331 | 0.0 | 0.0 | 0.00 | 0.26 | 0.00 | 96 | 1012.9 |
| 20260508073839 | 46 | 331 | 0.0 | 0.0 | 0.00 | 0.26 | 0.00 | 96 | 1012.7 |
| 20260508073332 | 46 | 331 | 0.0 | 0.0 | 0.00 | 0.26 | 0.00 | 96 | 1012.7 |
| 20260508072837 | 46 | 331 | 0.0 | 0.0 | 0.00 | 0.26 | 0.00 | 96 | 1012.7 |
| 20260508072330 | 46 | 331 | 0.0 | 0.0 | 0.00 | 0.26 | 0.00 | 96 | 1012.7 |
| 20260508071838 | 46 | 331 | 0.0 | 0.0 | 0.00 | 0.26 | 0.00 | 96 | 1012.7 |
| 20260508071332 | 46 | 331 | 0.0 | 0.0 | 0.00 | 0.26 | 0.00 | 95 | 1012.7 |
| 20260508070837 | 47 | 331 | 0.0 | 0.0 | 0.00 | 0.26 | 0.00 | 95 | 1012.7 |
| 20260508070337 | 47 | 331 | 0.0 | 0.0 | 0.00 | 0.26 | 0.00 | 95 | 1012.7 |
| 20260508065848 | 47 | 331 | 0.0 | 0.0 | 0.00 | 0.26 | 0.00 | 95 | 1012.7 |
| 20260508065356 | 47 | 331 | 0.0 | 0.0 | 0.00 | 0.26 | 0.00 | 95 | 1012.4 |
| 20260508064828 | 47 | 331 | 0.0 | 0.0 | 0.00 | 0.26 | 0.00 | 96 | 1012.4 |
| 20260508064417 | 47 | 331 | 0.0 | 0.0 | 0.00 | 0.26 | 0.00 | 96 | 1012.4 |
| 20260508063831 | 47 | 331 | 0.0 | 0.0 | 0.00 | 0.28 | 0.00 | 96 | 1012.6 |
| 20260508063341 | 47 | 331 | 0.0 | 0.0 | 0.00 | 0.28 | 0.00 | 96 | 1012.6 |
| 20260508062850 | 47 | 331 | 0.0 | 0.0 | 0.00 | 0.28 | 0.00 | 96 | 1012.6 |
| 20260508062337 | 47 | 331 | 0.0 | 0.0 | 0.00 | 0.28 | 0.00 | 96 | 1012.6 |
| 20260508061828 | 47 | 331 | 0.0 | 0.0 | 0.00 | 0.28 | 0.00 | 96 | 1012.6 |
| 20260508061357 | 47 | 331 | 0.0 | 0.0 | 0.00 | 0.28 | 0.00 | 96 | 1012.6 |
| 20260508060844 | 47 | 331 | 0.0 | 0.0 | 0.00 | 0.28 | 0.00 | 96 | 1012.3 |
| 20260508060356 | 47 | 331 | 0.0 | 0.0 | 0.00 | 0.28 | 0.00 | 96 | 1012.3 |
| 20260508055904 | 47 | 331 | 0.0 | 0.0 | 0.00 | 0.28 | 0.00 | 96 | 1012.3 |
| 20260508055348 | 47 | 331 | 0.0 | 0.0 | 0.00 | 0.28 | 0.00 | 95 | 1012.6 |
| 20260508054842 | 47 | 331 | 0.0 | 0.0 | 0.00 | 0.28 | 0.00 | 95 | 1012.6 |
| 20260508054347 | 47 | 331 | 0.0 | 0.0 | 0.00 | 0.28 | 0.00 | 95 | 1012.6 |
| 20260508053839 | 47 | 331 | 0.0 | 0.0 | 0.00 | 0.42 | 0.00 | 95 | 1012.6 |
| 20260508053349 | 47 | 331 | 0.0 | 0.0 | 0.00 | 0.42 | 0.00 | 95 | 1012.6 |
| 20260508052841 | 47 | 331 | 0.0 | 0.0 | 0.00 | 0.42 | 0.00 | 95 | 1012.6 |
| 20260508052354 | 47 | 331 | 0.0 | 0.0 | 0.00 | 0.42 | 0.00 | 94 | 1012.6 |
| 20260508051827 | 47 | 331 | 0.0 | 0.0 | 0.00 | 0.42 | 0.00 | 94 | 1012.6 |
| 20260508051352 | 48 | 331 | 0.0 | 0.0 | 0.00 | 0.42 | 0.00 | 94 | 1012.6 |
| 20260508050903 | 48 | 331 | 0.0 | 0.0 | 0.00 | 0.42 | 0.00 | 94 | 1012.4 |
| 20260508050339 | 48 | 331 | 0.0 | 0.0 | 0.00 | 0.42 | 0.00 | 94 | 1012.4 |
| 20260508045846 | 48 | 331 | 0.0 | 0.0 | 0.00 | 0.42 | 0.00 | 94 | 1012.4 |
| 20260508045343 | 48 | 331 | 0.0 | 0.0 | 0.00 | 0.42 | 0.00 | 94 | 1012.3 |
| 20260508044854 | 48 | 331 | 0.0 | 0.0 | 0.00 | 0.42 | 0.00 | 94 | 1012.3 |
| 20260508044327 | 48 | 331 | 0.0 | 0.0 | 0.00 | 0.42 | 0.00 | 94 | 1012.3 |
| 20260508043834 | 48 | 331 | 0.0 | 0.0 | 0.00 | 0.74 | 0.00 | 94 | 1012.2 |
| 20260508043329 | 48 | 331 | 0.0 | 0.0 | 0.00 | 0.74 | 0.00 | 94 | 1012.2 |
| 20260508042841 | 48 | 331 | 0.0 | 0.0 | 0.00 | 0.74 | 0.00 | 93 | 1012.2 |
| 20260508042329 | 48 | 331 | 0.0 | 0.0 | 0.00 | 0.74 | 0.00 | 93 | 1012.2 |
| 20260508041838 | 48 | 331 | 0.0 | 0.0 | 0.00 | 0.74 | 0.00 | 93 | 1012.2 |
| 20260508041327 | 49 | 331 | 0.0 | 0.0 | 0.00 | 0.74 | 0.00 | 93 | 1012.2 |
| 20260508040838 | 49 | 331 | 0.0 | 0.0 | 0.00 | 0.74 | 0.00 | 93 | 1012.2 |
| 20260508040332 | 49 | 331 | 0.0 | 0.0 | 0.00 | 0.74 | 0.00 | 93 | 1012.2 |
| 20260508035837 | 49 | 331 | 0.0 | 0.0 | 0.00 | 0.74 | 0.00 | 93 | 1012.2 |
| 20260508035334 | 49 | 331 | 0.0 | 0.0 | 0.00 | 0.74 | 0.00 | 93 | 1012.2 |
| 20260508034843 | 49 | 331 | 0.0 | 0.0 | 0.00 | 0.74 | 0.00 | 93 | 1012.2 |
| 20260508034334 | 49 | 331 | 0.0 | 0.0 | 0.00 | 0.74 | 0.00 | 93 | 1012.2 |
| 20260508033845 | 49 | 331 | 0.0 | 0.0 | 0.00 | 0.74 | 0.74 | 93 | 1012.3 |
| 20260508033338 | 49 | 331 | 0.0 | 0.0 | 0.00 | 0.74 | 0.74 | 92 | 1012.3 |
| 20260508032845 | 49 | 331 | 0.0 | 0.0 | 0.00 | 0.74 | 0.74 | 92 | 1012.3 |
| 20260508032338 | 50 | 331 | 0.0 | 0.0 | 0.00 | 0.74 | 0.74 | 92 | 1012.2 |
| 20260508031841 | 50 | 331 | 0.0 | 0.0 | 0.00 | 0.74 | 0.74 | 92 | 1012.2 |
| 20260508031336 | 50 | 331 | 0.0 | 0.0 | 0.00 | 0.74 | 0.74 | 91 | 1012.2 |
| 20260508030845 | 50 | 331 | 0.0 | 0.0 | 0.00 | 0.74 | 0.74 | 91 | 1012.2 |
| 20260508030359 | 50 | 331 | 0.0 | 0.0 | 0.00 | 0.74 | 0.74 | 90 | 1012.2 |
| 20260508025846 | 50 | 331 | 0.0 | 0.0 | 0.00 | 0.74 | 0.74 | 90 | 1012.2 |
| 20260508025338 | 50 | 331 | 0.0 | 0.0 | 0.00 | 0.74 | 0.74 | 90 | 1012.1 |
| 20260508024826 | 50 | 331 | 0.0 | 0.0 | 0.00 | 0.74 | 0.74 | 90 | 1012.1 |
| 20260508024334 | 50 | 331 | 0.0 | 0.0 | 0.00 | 0.74 | 0.74 | 90 | 1012.1 |
| 20260508023903 | 50 | 331 | 0.0 | 0.0 | 0.00 | 0.81 | 0.74 | 89 | 1011.6 |
| 20260508023356 | 50 | 331 | 0.0 | 0.0 | 0.00 | 0.81 | 0.74 | 89 | 1011.6 |
| 20260508022844 | 51 | 331 | 0.0 | 0.0 | 0.00 | 0.81 | 0.74 | 89 | 1011.6 |
| 20260508022350 | 51 | 331 | 0.0 | 0.0 | 0.00 | 0.81 | 0.74 | 88 | 1011.6 |
| 20260508021838 | 51 | 331 | 0.0 | 0.0 | 0.00 | 0.81 | 0.74 | 88 | 1011.6 |
| 20260508021348 | 51 | 331 | 0.0 | 0.0 | 0.00 | 0.81 | 0.74 | 88 | 1011.6 |
| 20260508020845 | 51 | 331 | 0.0 | 0.0 | 0.00 | 0.81 | 0.74 | 88 | 1011.4 |
| 20260508020349 | 51 | 331 | 0.0 | 0.0 | 0.00 | 0.81 | 0.74 | 88 | 1011.4 |
| 20260508015842 | 51 | 331 | 0.0 | 0.0 | 0.00 | 0.81 | 0.74 | 88 | 1011.4 |
| 20260508015352 | 51 | 331 | 0.0 | 0.0 | 0.00 | 0.81 | 0.74 | 87 | 1011.2 |
| 20260508014840 | 51 | 331 | 0.0 | 0.0 | 0.00 | 0.81 | 0.74 | 86 | 1011.2 |
| 20260508014349 | 52 | 331 | 0.0 | 0.0 | 0.00 | 0.81 | 0.74 | 86 | 1011.2 |
| 20260508013837 | 52 | 331 | 0.0 | 0.0 | 0.00 | 0.82 | 0.74 | 85 | 1011.0 |
| 20260508013352 | 52 | 331 | 0.0 | 0.0 | 0.00 | 0.82 | 0.74 | 84 | 1011.0 |
| 20260508012849 | 52 | 331 | 0.0 | 0.0 | 0.00 | 0.82 | 0.74 | 83 | 1011.0 |
| 20260508012334 | 52 | 331 | 0.0 | 0.0 | 0.00 | 0.82 | 0.74 | 83 | 1010.9 |
| 20260508011904 | 53 | 331 | 0.0 | 0.0 | 0.00 | 0.82 | 0.74 | 83 | 1010.9 |
| 20260508011334 | 53 | 331 | 0.0 | 0.0 | 0.00 | 0.82 | 0.74 | 81 | 1010.9 |
| 20260508010829 | 53 | 331 | 0.0 | 0.0 | 0.00 | 0.82 | 0.74 | 81 | 1010.9 |
| 20260508010355 | 53 | 331 | 0.0 | 0.0 | 0.00 | 0.82 | 0.74 | 81 | 1010.9 |
| 20260508005838 | 54 | 331 | 0.0 | 0.0 | 0.00 | 0.82 | 0.74 | 80 | 1010.9 |
| 20260508005447 | 54 | 331 | 0.0 | 0.0 | 0.00 | 0.82 | 0.74 | 80 | 1010.5 |
| 20260508004831 | 54 | 331 | 0.0 | 0.0 | 0.00 | 0.82 | 0.74 | 78 | 1010.5 |
| 20260508004359 | 54 | 331 | 0.0 | 0.0 | 0.00 | 0.82 | 0.74 | 80 | 1010.5 |
| 20260508003832 | 54 | 331 | 0.0 | 0.0 | 0.00 | 0.94 | 0.74 | 79 | 1010.5 |
| 20260508003356 | 54 | 331 | 0.0 | 0.0 | 0.00 | 0.94 | 0.74 | 78 | 1010.5 |
| 20260508002828 | 55 | 331 | 0.0 | 0.0 | 0.00 | 0.94 | 0.74 | 79 | 1010.5 |
| 20260508002355 | 55 | 331 | 0.0 | 0.0 | 0.00 | 0.94 | 0.74 | 80 | 1010.4 |
| 20260508001827 | 55 | 331 | 0.0 | 0.0 | 0.00 | 0.94 | 0.74 | 80 | 1010.4 |
| 20260508001355 | 55 | 331 | 0.0 | 0.0 | 0.00 | 0.94 | 0.74 | 80 | 1010.4 |
| 20260508000844 | 55 | 331 | 0.0 | 0.0 | 0.00 | 0.94 | 0.74 | 78 | 1010.0 |
| 20260508000353 | 56 | 331 | 0.0 | 0.0 | 0.00 | 0.94 | 0.74 | 78 | 1010.0 |
| 20260507235829 | 56 | 331 | 0.0 | 0.0 | 0.00 | 0.94 | 0.74 | 76 | 1010.0 |
| 20260507235353 | 56 | 331 | 0.0 | 0.0 | 0.00 | 0.94 | 0.74 | 76 | 1010.0 |
| 20260507234829 | 56 | 331 | 0.0 | 0.0 | 0.00 | 0.94 | 0.74 | 76 | 1010.0 |
| 20260507234352 | 56 | 331 | 0.0 | 0.0 | 0.00 | 0.94 | 0.74 | 76 | 1010.0 |
| 20260507233846 | 57 | 331 | 0.0 | 0.0 | 0.00 | 1.03 | 0.74 | 76 | 1010.0 |
| 20260507233353 | 57 | 5 | 0.0 | 0.0 | 0.00 | 1.03 | 0.74 | 74 | 1010.0 |
| 20260507232907 | 57 | 5 | 0.0 | 0.0 | 0.00 | 1.03 | 0.74 | 74 | 1010.0 |
| 20260507232330 | 57 | 5 | 0.0 | 0.0 | 0.00 | 1.03 | 0.74 | 75 | 1009.8 |
| 20260507231839 | 57 | 5 | 0.0 | 0.0 | 0.00 | 1.03 | 0.74 | 74 | 1009.8 |
| 20260507231330 | 57 | 5 | 0.0 | 0.0 | 0.00 | 1.03 | 0.74 | 76 | 1009.8 |
| 20260507230845 | 57 | 5 | 0.0 | 0.0 | 0.00 | 1.03 | 0.74 | 75 | 1010.0 |
| 20260507230332 | 57 | 350 | 0.0 | 0.0 | 0.00 | 1.03 | 0.74 | 74 | 1010.0 |
| 20260507225844 | 57 | 308 | 0.0 | 0.0 | 0.00 | 1.03 | 0.74 | 75 | 1010.0 |
| 20260507225334 | 58 | 338 | 0.0 | 0.0 | 0.00 | 1.03 | 0.74 | 75 | 1009.9 |
| 20260507224843 | 58 | 76 | 0.0 | 0.0 | 0.00 | 1.03 | 0.74 | 74 | 1009.9 |
| 20260507224332 | 58 | 70 | 0.0 | 0.0 | 0.00 | 1.03 | 0.74 | 74 | 1009.9 |
| 20260507223838 | 58 | 70 | 0.0 | 0.0 | 0.00 | 1.10 | 0.74 | 73 | 1009.5 |
| 20260507223347 | 58 | 70 | 0.0 | 0.0 | 0.00 | 1.10 | 0.74 | 73 | 1009.5 |
| 20260507222838 | 58 | 70 | 0.0 | 0.0 | 0.00 | 1.10 | 0.74 | 72 | 1009.5 |
| 20260507222344 | 59 | 70 | 0.0 | 0.0 | 0.00 | 1.10 | 0.74 | 72 | 1009.2 |
| 20260507221835 | 59 | 63 | 0.0 | 0.0 | 0.00 | 1.10 | 0.74 | 72 | 1009.2 |
| 20260507221340 | 59 | 57 | 0.0 | 0.0 | 0.00 | 1.10 | 0.74 | 72 | 1009.2 |
| 20260507220830 | 59 | 58 | 0.0 | 0.0 | 0.00 | 1.10 | 0.74 | 73 | 1008.8 |
| 20260507220336 | 59 | 100 | 0.0 | 0.0 | 0.00 | 1.10 | 0.74 | 73 | 1008.8 |
| 20260507215901 | 59 | 41 | 0.0 | 0.0 | 0.00 | 1.10 | 0.74 | 74 | 1008.8 |
| 20260507215333 | 60 | 41 | 0.0 | 0.0 | 0.00 | 1.10 | 0.74 | 72 | 1008.4 |
| 20260507214837 | 60 | 355 | 0.0 | 0.0 | 0.00 | 1.10 | 0.74 | 72 | 1008.4 |
| 20260507214331 | 60 | 66 | 0.0 | 0.0 | 0.00 | 1.10 | 0.74 | 74 | 1008.4 |
| 20260507213839 | 61 | 58 | 0.0 | 0.0 | 0.00 | 1.15 | 0.74 | 73 | 1008.0 |
| 20260507213405 | 61 | 57 | 0.0 | 0.0 | 0.00 | 1.15 | 0.74 | 73 | 1008.0 |
| 20260507212859 | 61 | 61 | 0.0 | 0.0 | 0.00 | 1.15 | 0.74 | 73 | 1008.0 |
| 20260507212342 | 61 | 66 | 0.0 | 0.0 | 0.00 | 1.15 | 0.74 | 72 | 1007.8 |
| 20260507211910 | 62 | 67 | 0.0 | 0.0 | 0.00 | 1.15 | 0.74 | 73 | 1007.8 |
| 20260507211338 | 62 | 67 | 0.0 | 0.0 | 0.00 | 1.15 | 0.74 | 71 | 1007.8 |
| 20260507210850 | 62 | 74 | 0.0 | 0.0 | 0.00 | 1.15 | 0.74 | 73 | 1007.7 |
| 20260507210402 | 62 | 67 | 0.0 | 0.0 | 0.00 | 1.15 | 0.74 | 74 | 1007.7 |
| 20260507205830 | 62 | 68 | 0.0 | 0.0 | 0.00 | 1.15 | 0.74 | 73 | 1007.7 |
| 20260507205341 | 62 | 68 | 0.0 | 0.0 | 0.00 | 1.15 | 0.74 | 72 | 1007.7 |